Location: Pl�tzky
(52.0521°N, 11.8020°E)
Time: 00:11:09
(UTC+00:00)

USA 229 - Pass Details

Date: 26 February 2020
Orbit: 986 x 1226 km, 63.4° (Epoch: 26 March)

Event Time Altitude Azimuth Distance (km) Brightness Sun altitude
Rises 23:38:37 0° 312° (NW) 3,908 7.0 -46.5°
Reaches altitude 10° 23:41:14 10° 315° (NW) 2,983 6.3 -46.5°
Enters shadow 23:41:56 13° 315° (NW) 2,742 6.1 -46.4°
